Location: *
(28.3744°N, 81.5492°W)
Time: 04:06:08
(UTC+00:00)

Resurs 1-4 Rocket - Pass Details

Date: 15 June 2025
Orbit: 798 x 812 km, 98.8° (Epoch: 11 July)

Event Time Altitude Azimuth Distance (km) Brightness Sun altitude
Rises 06:51:28 0° 27° (NNE) 3,310 6.3 -34.4°
Reaches altitude 10° 06:54:05 10° 38° (NE) 2,378 5.3 -34.2°
Enters shadow 06:57:40 28° 78° (ENE) 1,472 3.7 -33.9°
